DW7371 Weather Reports


Display with metric or nautical units.
time (UTC)temp
F
wind
direction
speed
MPH
gust
MPH
rain 1hr
in
rain 24hr
in
rain mn
in
humidity
%
barometer
mb
20260509181453 61 237 1.0 4.0 0.00 0.00 0.00 70 1019.1
20260509180445 61 200 1.0 6.0 0.00 0.00 0.00 73 1019.2
20260509175452 61 15 1.0 6.0 0.00 0.00 0.00 73 1019.2
20260509174509 59 280 1.0 5.0 0.00 0.00 0.00 75 1019.2
20260509173511 60 41 1.0 3.0 0.00 0.00 0.00 76 1019.3
20260509172447 60 296 1.0 3.0 0.00 0.00 0.00 75 1019.4
20260509171422 60 49 1.0 4.0 0.00 0.00 0.00 74 1019.4
20260509170352 58 311 1.0 3.0 0.00 0.00 0.00 77 1019.5
20260509165355 58 323 1.0 3.0 0.00 0.00 0.00 76 1019.5
20260509164340 58 113 0.0 3.0 0.00 0.00 0.00 75 1019.6
20260509163322 58 53 1.0 3.0 0.00 0.00 0.00 76 1019.6
20260509162329 57 25 1.0 3.0 0.00 0.00 0.00 79 1019.7
20260509161336 58 333 0.0 4.0 0.00 0.00 0.00 79 1019.7
20260509160311 57 260 0.0 4.0 0.00 0.00 0.00 79 1019.9
20260509155258 57 275 1.0 4.0 0.00 0.00 0.00 82 1020.0
20260509154240 56 32 0.0 4.0 0.00 0.00 0.00 81 1020.0
20260509153213 56 260 0.0 2.0 0.00 0.00 0.00 82 1020.1
20260509152228 55 111 0.0 2.0 0.00 0.00 0.00 84 1020.0
20260509151240 54 329 0.0 2.0 0.00 0.00 0.00 84 1020.1
20260509145133 52 309 0.0 0.0 0.00 0.00 0.00 90 1020.2
20260509144112 52 309 0.0 0.0 0.00 0.00 0.00 91 1020.3
20260509143123 52 116 0.0 0.0 0.00 0.00 0.00 90 1020.2
20260509142132 52 116 0.0 0.0 0.00 0.00 0.00 90 1020.3
20260509134948 51 116 0.0 0.0 0.00 0.00 0.00 92 1020.5
20260509133915 51 116 0.0 0.0 0.00 0.00 0.00 91 1020.6
20260509132844 50 116 0.0 0.0 0.00 0.00 0.00 91 1020.4
20260509131908 50 130 0.0 0.0 0.00 0.00 0.00 91 1020.4
20260509130843 50 134 0.0 0.0 0.00 0.00 0.00 92 1020.5
20260509125855 50 134 0.0 0.0 0.00 0.00 0.00 91 1020.5
20260509124909 50 134 0.0 0.0 0.00 0.00 0.00 90 1020.3
20260509123848 50 134 0.0 0.0 0.00 0.00 0.00 90 1020.2
20260509122906 50 134 0.0 0.0 0.00 0.00 0.00 90 1020.3
20260509120814 50 161 0.0 0.0 0.00 0.00 0.00 90 1020.4
20260509115820 50 153 0.0 0.0 0.00 0.00 0.00 90 1020.5
20260509114840 51 153 0.0 1.0 0.00 0.00 0.00 89 1020.6
20260509113827 50 153 0.0 0.0 0.00 0.00 0.00 89 1020.6
20260509112805 50 153 0.0 0.0 0.00 0.00 0.00 90 1020.6
20260509105528 50 153 0.0 0.0 0.00 0.00 0.00 89 1020.5
20260509103432 50 153 0.0 0.0 0.00 0.00 0.00 88 1020.4
20260509102443 50 153 0.0 0.0 0.00 0.00 0.00 89 1020.4
20260509101425 50 153 0.0 0.0 0.00 0.00 0.00 88 1020.4
20260509100402 50 154 0.0 1.0 0.00 0.00 0.00 88 1020.4
20260509095419 50 119 0.0 0.0 0.00 0.00 0.00 88 1020.4
20260509093258 49 141 0.0 0.0 0.00 0.00 0.00 89 1020.3
20260509091133 50 157 0.0 0.0 0.00 0.00 0.00 88 1020.3
20260509090152 50 157 0.0 0.0 0.00 0.00 0.00 88 1020.2
20260509085148 50 157 0.0 0.0 0.00 0.00 0.00 88 1020.3
20260509084147 50 131 0.0 0.0 0.00 0.00 0.00 86 1020.4
20260509083123 51 90 0.0 0.0 0.00 0.00 0.00 85 1020.4
20260509082112 51 123 1.0 3.0 0.00 0.00 0.00 84 1020.5
20260509081052 51 144 0.0 1.0 0.00 0.00 0.00 86 1020.5
20260509073833 50 161 0.0 2.0 0.00 0.00 0.00 85 1020.5
20260509072803 50 112 0.0 1.0 0.00 0.00 0.00 84 1020.4
20260509071737 50 112 0.0 0.0 0.00 0.00 0.00 84 1020.4
20260509070738 51 112 0.0 0.0 0.00 0.00 0.00 83 1020.3
20260509065734 50 112 0.0 0.0 0.00 0.00 0.00 85 1020.4
20260509064737 50 112 0.0 0.0 0.00 0.00 0.00 84 1020.4
20260509063751 50 112 0.0 1.0 0.00 0.00 0.00 84 1020.4
20260509062738 50 112 0.0 1.0 0.00 0.00 0.00 84 1020.4
20260509061733 50 112 0.0 1.0 0.00 0.00 0.00 84 1020.4
20260509060703 51 112 0.0 1.0 0.00 0.00 0.00 83 1020.3
20260509053414 52 124 0.0 4.0 0.00 0.00 0.00 80 1020.3
20260509052425 53 118 1.0 4.0 0.00 0.00 0.00 79 1020.3
20260509051442 53 117 1.0 3.0 0.00 0.00 0.00 78 1020.2
20260509045249 54 117 0.0 2.0 0.00 0.00 0.00 76 1020.2
20260509044246 54 136 0.0 4.0 0.00 0.00 0.00 76 1020.1
20260509043254 54 175 1.0 4.0 0.00 0.00 0.00 76 1020.0
20260509042315 54 246 0.0 3.0 0.00 0.00 0.00 77 1020.1
20260509040159 54 118 0.0 3.0 0.00 0.00 0.00 75 1019.9
20260509034116 54 113 1.0 5.0 0.00 0.00 0.00 75 1019.8
20260509033054 54 178 2.0 6.0 0.00 0.00 0.00 74 1019.7
20260509032020 54 204 3.0 7.0 0.00 0.00 0.00 73 1019.6
20260509024715 54 205 5.0 12.0 0.00 0.00 0.00 73 1019.4
20260509023650 55 188 6.0 12.0 0.00 0.00 0.00 73 1019.4
20260509022624 55 192 5.0 9.0 0.00 0.00 0.00 72 1019.4
20260509021556 55 201 5.0 9.0 0.00 0.00 0.00 71 1019.4
20260509020614 55 198 5.0 13.0 0.00 0.00 0.00 71 1019.4
20260509015608 55 223 8.0 13.0 0.00 0.00 0.00 71 1019.4
20260509014544 55 215 9.0 13.0 0.00 0.00 0.00 70 1019.5
20260509013516 56 213 7.0 13.0 0.00 0.00 0.00 69 1019.3
20260509012535 56 172 6.0 13.0 0.00 0.00 0.00 69 1019.4
20260509011539 56 220 8.0 15.0 0.00 0.00 0.00 67 1019.4
20260509010546 56 211 8.0 15.0 0.00 0.00 0.00 68 1019.4
20260509005555 56 168 7.0 13.0 0.00 0.00 0.00 68 1019.3
20260509004612 56 190 6.0 10.0 0.00 0.00 0.00 69 1019.3
20260509003615 56 171 4.0 9.0 0.00 0.00 0.00 70 1019.3
20260509002628 56 149 6.0 11.0 0.00 0.00 0.00 70 1019.3
20260509001607 56 227 6.0 12.0 0.00 0.00 0.00 71 1019.4
20260509000541 56 211 6.0 12.0 0.00 0.00 0.00 73 1019.4
20260508235559 56 191 4.0 9.0 0.00 0.00 0.00 70 1019.4
20260508234541 57 166 5.0 10.0 0.00 0.00 0.00 68 1019.3
20260508233536 56 194 9.0 14.0 0.00 0.00 0.00 69 1019.3
20260508232502 57 211 8.0 13.0 0.00 0.00 0.00 70 1019.2
20260508231431 58 149 4.0 12.0 0.00 0.00 0.00 68 1019.1
20260508230411 57 194 6.0 14.0 0.00 0.00 0.00 70 1019.1
20260508225415 57 205 7.0 12.0 0.00 0.00 0.00 71 1019.0
20260508224412 56 199 8.0 16.0 0.00 0.00 0.00 68 1019.1
20260508223416 56 196 9.0 16.0 0.00 0.00 0.00 70 1019.1
20260508222429 57 218 8.0 14.0 0.00 0.00 0.00 69 1019.1
20260508221425 56 179 10.0 15.0 0.00 0.00 0.00 72 1019.1
20260508220354 56 189 10.0 15.0 0.00 0.00 0.00 70 1019.2
20260508215349 56 202 10.0 18.0 0.00 0.00 0.00 69 1019.1
20260508214355 57 209 10.0 18.0 0.00 0.00 0.00 69 1019.0
20260508213350 56 216 9.0 15.0 0.00 0.00 0.00 68 1019.0
20260508212349 56 240 9.0 15.0 0.00 0.00 0.00 67 1018.9
20260508211350 56 179 8.0 14.0 0.00 0.00 0.00 68 1018.9
20260508210332 56 194 8.0 15.0 0.00 0.00 0.00 67 1018.8
20260508205354 56 176 7.0 15.0 0.00 0.00 0.00 69 1018.7
20260508204403 56 192 9.0 15.0 0.00 0.00 0.00 70 1018.6
20260508203428 55 201 10.0 14.0 0.00 0.00 0.00 72 1018.6
20260508202440 56 196 10.0 14.0 0.00 0.00 0.00 69 1018.7
20260508195143 55 212 11.0 19.0 0.00 0.00 0.00 72 1018.3
20260508194128 55 184 11.0 17.0 0.00 0.00 0.00 73 1018.2
20260508192030 55 181 10.0 15.0 0.00 0.00 0.00 71 1017.9
20260508191048 55 202 9.0 14.0 0.00 0.00 0.00 72 1017.8
20260508190017 55 188 7.0 15.0 0.00 0.00 0.00 72 1017.9
20260508185013 55 213 9.0 15.0 0.00 0.00 0.00 72 1017.7